sat.trackr.live / text

‹ back to catalog

STARLINK-35099

NORAD 65735 · 2025-216B

PAYLOAD ACTIVE UNKNOWN

§ Identity

Operator
Country
US
Launch date
2025-09-25
Launch site
AFETR
Launch vehicle
Mass (kg)
RCS (m²)

Purposes: comms

External: N2YO · Heavens-Above · Gunter

§ Orbital elements

Epoch: 2026-05-24T22:53:29.787072Z

Period
94.10 min
Inclination
53.1598°
Eccentricity
0.0000986
Mean motion
15.30213986 rev/d
Perigee alt
474.5 km
Apogee alt
475.8 km
Semi-major
6,853.3 km
B*
6.2240e-4
RAAN
338.3926°
Arg perigee
89.2953°
Mean anomaly
270.8160°
Rev number
3,819

§ Raw data

STARLINK-350991 65735U 25216B   26144.95381698  .00018128  00000+0  62240-3 0  99942 65735  53.1598 338.3926 0000986  89.2953 270.8160 15.30213986 38195

JSON: /api/v1/satellites/65735 · /tle

For live sub-satellite position, see the globe view (requires WebGL).

§ Visibility from observer

Set your observer location to see the next 7 days of passes ≥ 10°. The values pass through the URL so the page stays shareable.

No JS? Fill the form by hand. The geolocation button needs JavaScript.